When you browse on this site, cookies collect data to enhance your experience and personalize the content and advertising you see.
Visit our Privacy Policy to learn more. By continuing to use the site, you agree to this use of cookies and data.
  • In Sweden
  • List of Countries
  • For 7 days
  • Water Temperature
  • Weather Map
  • Weather Widgets
  • user-avatar
    Login

    Hourly Weather Агилар де Эбро

    Today, 7 June, Sunday

    Time Temperature Precipitation Wind Pressure Humidity
    00:00 +19°C° 0 mm 6 mps 735 mmHg 74%
    01:00 +17°C° 0 mm 6 mps 735 mmHg 75%
    02:00 +17°C° 0 mm 6 mps 735 mmHg 76%
    03:00 +17°C° 0 mm 6 mps 735 mmHg 76%
    04:00 +17°C° 0 mm 6 mps 735 mmHg 76%
    05:00 +17°C° 0 mm 7 mps 735 mmHg 75%
    06:00 +17°C° 0 mm 7 mps 736 mmHg 75%
    07:00 +17°C° 0 mm 8 mps 736 mmHg 72%
    08:00 +17°C° 0 mm 8 mps 736 mmHg 69%
    09:00 +18°C° 0 mm 8 mps 736 mmHg 66%
    10:00 +19°C° 0 mm 9 mps 737 mmHg 61%
    11:00 +21°C° 0 mm 9 mps 737 mmHg 56%
    12:00 +22°C° 0 mm 9 mps 737 mmHg 51%
    13:00 +22°C° 0 mm 10 mps 737 mmHg 49%
    14:00 +22°C° 0 mm 10 mps 737 mmHg 47%
    15:00 +23°C° 0 mm 10 mps 736 mmHg 45%
    16:00 +22°C° 0.1 mm 10 mps 737 mmHg 45%
    17:00 +21°C° 0.1 mm 9 mps 737 mmHg 46%
    18:00 +19°C° 0.1 mm 9 mps 737 mmHg 46%
    19:00 +18°C° 0.1 mm 9 mps 738 mmHg 48%
    20:00 +17°C° 0.1 mm 9 mps 738 mmHg 49%
    21:00 +16°C° 0.1 mm 9 mps 739 mmHg 51%
    22:00 +15°C° 0 mm 9 mps 739 mmHg 54%
    23:00 +13°C° 0 mm 9 mps 739 mmHg 57%

    Tomorrow, 8 June, Monday

    Time Temperature Precipitation Wind Pressure Humidity
    00:00 +12°C° 0 mm 9 mps 739 mmHg 60%
    01:00 +11°C° 0 mm 9 mps 739 mmHg 62%
    02:00 +11°C° 0 mm 9 mps 739 mmHg 64%
    03:00 +11°C° 0 mm 9 mps 739 mmHg 66%
    04:00 +11°C° 0 mm 9 mps 739 mmHg 66%
    05:00 +11°C° 0 mm 9 mps 739 mmHg 67%
    06:00 +11°C° 0 mm 8 mps 739 mmHg 67%
    07:00 +13°C° 0 mm 8 mps 739 mmHg 62%
    08:00 +15°C° 0 mm 9 mps 739 mmHg 58%
    09:00 +17°C° 0 mm 9 mps 740 mmHg 53%
    10:00 +18°C° 0 mm 8 mps 739 mmHg 49%
    11:00 +20°C° 0 mm 7 mps 739 mmHg 46%
    12:00 +21°C° 0 mm 7 mps 739 mmHg 42%
    13:00 +22°C° 0 mm 7 mps 739 mmHg 41%
    14:00 +23°C° 0 mm 8 mps 739 mmHg 39%
    15:00 +23°C° 0 mm 8 mps 739 mmHg 38%
    16:00 +23°C° 0 mm 9 mps 739 mmHg 40%
    17:00 +22°C° 0 mm 9 mps 739 mmHg 41%
    18:00 +21°C° 0 mm 9 mps 739 mmHg 43%
    19:00 +19°C° 0 mm 9 mps 740 mmHg 48%
    20:00 +17°C° 0 mm 9 mps 740 mmHg 53%
    21:00 +16°C° 0 mm 9 mps 741 mmHg 58%
    22:00 +15°C° 0 mm 9 mps 741 mmHg 61%
    23:00 +15°C° 0 mm 8 mps 741 mmHg 65%

    Day after tomorrow, 9 June, Tuesday

    Time Temperature Precipitation Wind Pressure Humidity
    00:00 +13°C° 0 mm 8 mps 741 mmHg 68%
    01:00 +13°C° 0 mm 8 mps 741 mmHg 70%
    02:00 +12°C° 0 mm 7 mps 741 mmHg 72%
    03:00 +12°C° 0 mm 7 mps 741 mmHg 74%
    04:00 +12°C° 0 mm 7 mps 741 mmHg 73%
    05:00 +12°C° 0 mm 7 mps 742 mmHg 73%
    06:00 +14°C° 0 mm 7 mps 742 mmHg 72%
    07:00 +15°C° 0 mm 7 mps 742 mmHg 67%
    08:00 +17°C° 0 mm 7 mps 742 mmHg 61%
    09:00 +18°C° 0 mm 7 mps 742 mmHg 56%
    10:00 +20°C° 0 mm 7 mps 742 mmHg 52%
    11:00 +22°C° 0 mm 7 mps 742 mmHg 47%
    12:00 +23°C° 0 mm 7 mps 742 mmHg 43%
    13:00 +23°C° 0 mm 7 mps 741 mmHg 41%
    14:00 +24°C° 0 mm 7 mps 741 mmHg 39%
    15:00 +24°C° 0 mm 8 mps 741 mmHg 37%
    16:00 +24°C° 0 mm 8 mps 741 mmHg 38%
    17:00 +23°C° 0 mm 8 mps 741 mmHg 39%
    18:00 +23°C° 0 mm 8 mps 741 mmHg 41%
    19:00 +21°C° 0 mm 8 mps 742 mmHg 45%
    20:00 +20°C° 0 mm 8 mps 742 mmHg 50%
    21:00 +17°C° 0 mm 8 mps 743 mmHg 54%
    22:00 +17°C° 0 mm 9 mps 743 mmHg 58%
    23:00 +16°C° 0 mm 9 mps 743 mmHg 63%

    10 June, Wednesday

    Time Temperature Precipitation Wind Pressure Humidity
    00:00 +14°C° 0 mm 10 mps 743 mmHg 67%
    01:00 +15°C° 0 mm 9 mps 743 mmHg 68%
    02:00 +13°C° 0 mm 9 mps 742 mmHg 68%
    03:00 +13°C° 0 mm 8 mps 742 mmHg 68%
    04:00 +13°C° 0 mm 8 mps 742 mmHg 68%
    05:00 +13°C° 0 mm 8 mps 743 mmHg 68%
    06:00 +13°C° 0 mm 9 mps 743 mmHg 69%
    07:00 +15°C° 0 mm 9 mps 743 mmHg 63%
    08:00 +16°C° 0 mm 9 mps 742 mmHg 57%
    09:00 +18°C° 0 mm 9 mps 742 mmHg 52%
    10:00 +20°C° 0 mm 8 mps 742 mmHg 48%
    11:00 +21°C° 0 mm 8 mps 742 mmHg 44%
    12:00 +23°C° 0 mm 8 mps 742 mmHg 40%
    13:00 +23°C° 0 mm 8 mps 742 mmHg 39%
    14:00 +24°C° 0 mm 8 mps 741 mmHg 38%
    15:00 +24°C° 0 mm 8 mps 741 mmHg 37%
    16:00 +24°C° 0 mm 8 mps 741 mmHg 39%
    17:00 +23°C° 0 mm 8 mps 741 mmHg 41%
    18:00 +23°C° 0 mm 7 mps 741 mmHg 43%
    19:00 +22°C° 0 mm 7 mps 741 mmHg 46%
    20:00 +21°C° 0 mm 6 mps 741 mmHg 50%
    21:00 +19°C° 0 mm 5 mps 742 mmHg 53%
    22:00 +19°C° 0 mm 5 mps 742 mmHg 55%
    23:00 +17°C° 0 mm 5 mps 741 mmHg 57%

    11 June, Thursday

    Time Temperature Precipitation Wind Pressure Humidity
    00:00 +16°C° 0 mm 5 mps 741 mmHg 59%
    01:00 +16°C° 0 mm 5 mps 741 mmHg 60%
    02:00 +17°C° 0 mm 4 mps 740 mmHg 62%
    03:00 +15°C° 0 mm 4 mps 740 mmHg 64%
    04:00 +16°C° 0 mm 3 mps 740 mmHg 63%
    05:00 +17°C° 0 mm 3 mps 740 mmHg 62%
    06:00 +17°C° 0 mm 3 mps 740 mmHg 61%
    07:00 +18°C° 0 mm 3 mps 739 mmHg 56%
    08:00 +20°C° 0 mm 3 mps 739 mmHg 51%
    09:00 +21°C° 0 mm 3 mps 739 mmHg 46%
    10:00 +24°C° 0 mm 3 mps 739 mmHg 43%
    11:00 +25°C° 0 mm 4 mps 738 mmHg 40%
    12:00 +27°C° 0 mm 4 mps 738 mmHg 36%
    13:00 +28°C° 0 mm 4 mps 738 mmHg 34%
    14:00 +29°C° 0 mm 4 mps 737 mmHg 32%
    15:00 +29°C° 0 mm 4 mps 737 mmHg 30%
    16:00 +29°C° 0 mm 4 mps 737 mmHg 32%
    17:00 +29°C° 0 mm 4 mps 737 mmHg 34%
    18:00 +28°C° 0 mm 4 mps 737 mmHg 36%
    19:00 +26°C° 0 mm 5 mps 737 mmHg 42%
    20:00 +23°C° 0 mm 6 mps 738 mmHg 48%
    21:00 +21°C° 0 mm 7 mps 738 mmHg 55%
    22:00 +20°C° 0 mm 7 mps 738 mmHg 57%
    23:00 +18°C° 0 mm 7 mps 738 mmHg 60%

    12 June, Friday

    Time Temperature Precipitation Wind Pressure Humidity
    00:00 +17°C° 0 mm 7 mps 738 mmHg 62%
    01:00 +17°C° 0 mm 7 mps 738 mmHg 62%
    02:00 +16°C° 0 mm 7 mps 738 mmHg 62%
    03:00 +16°C° 0 mm 6 mps 737 mmHg 62%
    04:00 +16°C° 0 mm 6 mps 738 mmHg 61%
    05:00 +16°C° 0 mm 6 mps 738 mmHg 60%
    06:00 +15°C° 0 mm 6 mps 738 mmHg 59%
    07:00 +17°C° 0 mm 6 mps 738 mmHg 55%
    08:00 +19°C° 0 mm 5 mps 738 mmHg 51%
    09:00 +20°C° 0 mm 5 mps 738 mmHg 47%
    10:00 +22°C° 0 mm 4 mps 738 mmHg 45%
    11:00 +23°C° 0 mm 4 mps 738 mmHg 44%
    12:00 +25°C° 0 mm 3 mps 738 mmHg 43%
    13:00 +26°C° 0 mm 2 mps 737 mmHg 42%
    14:00 +27°C° 0 mm 2 mps 737 mmHg 40%
    15:00 +28°C° 0 mm 1 mps 736 mmHg 38%
    16:00 +28°C° 0 mm 2 mps 736 mmHg 39%
    17:00 +28°C° 0 mm 3 mps 736 mmHg 39%
    18:00 +28°C° 0 mm 3 mps 736 mmHg 40%
    19:00 +27°C° 0 mm 4 mps 737 mmHg 48%
    20:00 +25°C° 0 mm 4 mps 737 mmHg 56%
    21:00 +23°C° 0 mm 5 mps 738 mmHg 64%
    22:00 +22°C° 0 mm 5 mps 737 mmHg 68%
    23:00 +22°C° 0 mm 5 mps 737 mmHg 71%
    Show more